Location: Aufkirchen
(47.9603°N, 11.3653°E)
Time: 06:38:26
(UTC+01:00)

Transit 4A - Pass Details

Date: 29 November 2020
Orbit: 864 x 980 km, 66.8° (Epoch: 25 January)

Event Time Altitude Azimuth Distance (km) Brightness Sun altitude
Rises 07:05:10 0° 176° (S) 3,612 11.4 -6.1°
Reaches altitude 10° 07:08:01 10° 165° (SSE) 2,686 11.0 -5.6°
Maximum altitude 07:13:15 28° 108° (ESE) 1,722 10.4 -4.9°
Drops below altitude 10° 07:18:34 10° 52° (NE) 2,736 10.7 -4.1°
Sets 07:21:29 0° 42° (NE) 3,691 11.2 -3.6°
